| time (UTC) | temp C | wind direction | speed KPH | gust KPH | rain 1hr cm | rain 24hr cm | rain mn cm | humidity % | barometer mb |
| 20260508111531 | -17 | 0.0 | 0.0 | 0.00 | 0.00 | 0.00 | 1011.2 | ||
| 20260508110027 | -17 | 0.0 | 0.0 | 0.00 | 0.00 | 0.00 | 1011.0 | ||
| 20260508104523 | -17 | 0.0 | 0.0 | 0.00 | 0.00 | 0.00 | 1011.1 | ||
| 20260508103021 | -17 | 0.0 | 0.0 | 0.00 | 0.00 | 0.00 | 1011.0 | ||
| 20260508101514 | -17 | 0.0 | 0.0 | 0.00 | 0.00 | 0.00 | 1011.0 | ||
| 20260508100017 | -17 | 0.0 | 0.0 | 0.00 | 0.00 | 0.00 | 1011.1 | ||
| 20260508094505 | -17 | 0.0 | 0.0 | 0.00 | 0.00 | 0.00 | 1011.1 | ||
| 20260508093100 | -17 | 0.0 | 0.0 | 0.00 | 0.00 | 0.00 | 88 | 1011.0 | |
| 20260508091609 | 2 | 0.0 | 0.0 | 0.00 | 0.00 | 0.00 | 88 | 1010.9 | |
| 20260508090059 | 2 | 0.0 | 0.0 | 0.00 | 0.00 | 0.00 | 88 | 1010.9 | |
| 20260508084612 | 2 | 0.0 | 0.0 | 0.00 | 0.00 | 0.00 | 88 | 1010.7 | |
| 20260508083106 | 2 | 0.0 | 0.0 | 0.00 | 0.00 | 0.00 | 88 | 1010.7 | |
| 20260508081554 | 3 | 0.0 | 0.0 | 0.00 | 0.00 | 0.00 | 88 | 1010.6 | |
| 20260508080106 | 3 | 0.0 | 0.0 | 0.00 | 0.00 | 0.00 | 88 | 1010.4 | |
| 20260508074549 | 3 | 0.0 | 0.0 | 0.00 | 0.00 | 0.00 | 88 | 1010.4 | |
| 20260508073056 | 3 | 0.0 | 0.0 | 0.00 | 0.00 | 0.00 | 89 | 1010.5 | |
| 20260508071548 | 3 | 0.0 | 0.0 | 0.00 | 0.00 | 0.00 | 89 | 1010.6 | |
| 20260508070051 | 3 | 0.0 | 0.0 | 0.00 | 0.00 | 0.00 | 90 | 1010.6 | |
| 20260508064553 | 3 | 0.0 | 0.0 | 0.00 | 0.00 | 0.00 | 90 | 1010.5 | |
| 20260508063045 | 3 | 0.0 | 0.0 | 0.00 | 0.00 | 0.00 | 88 | 1010.4 | |
| 20260508061545 | 3 | 0.0 | 0.0 | 0.00 | 0.00 | 0.00 | 88 | 1010.2 | |
| 20260508060043 | 3 | 0.0 | 0.0 | 0.00 | 0.00 | 0.00 | 87 | 1010.2 | |
| 20260508054546 | 3 | 0.0 | 0.0 | 0.00 | 0.00 | 0.00 | 85 | 1010.2 | |
| 20260508053041 | 4 | 0.0 | 0.0 | 0.00 | 0.00 | 0.00 | 84 | 1010.4 | |
| 20260508051538 | 4 | 0.0 | 0.0 | 0.00 | 0.00 | 0.00 | 83 | 1010.6 | |
| 20260508050040 | 5 | 0.0 | 0.0 | 0.00 | 0.00 | 0.00 | 81 | 1010.7 | |
| 20260508044529 | 5 | 0.0 | 0.0 | 0.00 | 0.00 | 0.00 | 79 | 1010.6 | |
| 20260508043025 | 5 | 0.0 | 0.0 | 0.00 | 0.00 | 0.00 | 77 | 1010.9 | |
| 20260508041524 | 5 | 0.0 | 0.0 | 0.00 | 0.00 | 0.00 | 76 | 1010.9 | |
| 20260508040037 | 6 | 0.0 | 0.0 | 0.00 | 0.00 | 0.00 | 76 | 1010.9 | |
| 20260508034524 | 6 | 0.0 | 0.0 | 0.00 | 0.00 | 0.00 | 73 | 1010.5 | |
| 20260508033019 | 6 | 0.0 | 0.0 | 0.00 | 0.00 | 0.00 | 68 | 1010.4 | |
| 20260508031521 | 6 | 0.0 | 0.0 | 0.00 | 0.00 | 0.00 | 67 | 1010.3 | |
| 20260508030021 | 6 | 0.0 | 0.0 | 0.00 | 0.00 | 0.00 | 64 | 1009.9 | |
| 20260508024523 | 6 | 0.0 | 0.0 | 0.00 | 0.00 | 0.00 | 64 | 1009.7 | |
| 20260508023017 | 6 | 0.0 | 0.0 | 0.00 | 0.00 | 0.00 | 63 | 1009.8 | |
| 20260508021518 | 6 | 0.0 | 0.0 | 0.00 | 0.00 | 0.00 | 63 | 1009.7 | |
| 20260508020016 | 7 | 0.0 | 0.0 | 0.00 | 0.00 | 0.00 | 62 | 1009.7 | |
| 20260508014515 | 7 | 0.0 | 0.0 | 0.00 | 0.00 | 0.00 | 63 | 1009.4 | |
| 20260508013014 | 7 | 0.0 | 0.0 | 0.00 | 0.00 | 0.00 | 62 | 1009.3 | |
| 20260508011516 | 7 | 0.0 | 0.0 | 0.00 | 0.00 | 0.00 | 62 | 1009.3 | |
| 20260508010015 | 7 | 0.0 | 0.0 | 0.00 | 0.00 | 0.00 | 63 | 1009.2 | |
| 20260508004513 | 7 | 0.0 | 0.0 | 0.00 | 0.00 | 0.00 | 65 | 1009.2 | |
| 20260508003012 | 7 | 0.0 | 0.0 | 0.00 | 0.00 | 0.00 | 62 | 1009.1 | |
| 20260508001514 | 8 | 0.0 | 0.0 | 0.00 | 0.00 | 0.00 | 61 | 1009.0 | |
| 20260508000011 | 8 | 0.0 | 0.0 | 0.00 | 0.00 | 0.00 | 59 | 1008.9 | |
| 20260507234518 | 8 | 0.0 | 0.0 | 0.00 | 0.00 | 0.00 | 58 | 1008.8 | |
| 20260507233014 | 8 | 0.0 | 0.0 | 0.00 | 0.00 | 0.00 | 58 | 1008.7 | |
| 20260507231509 | 9 | 0.0 | 0.0 | 0.00 | 0.00 | 0.00 | 55 | 1008.6 | |
| 20260507230014 | 10 | 0.0 | 0.0 | 0.00 | 0.00 | 0.00 | 53 | 1008.7 | |
| 20260507224509 | 10 | 0.0 | 0.0 | 0.00 | 0.00 | 0.00 | 54 | 1008.6 | |
| 20260507223009 | 10 | 0.0 | 0.0 | 0.00 | 0.00 | 0.00 | 54 | 1008.5 | |
| 20260507221506 | 10 | 0.0 | 0.0 | 0.00 | 0.00 | 0.00 | 55 | 1008.5 | |
| 20260507220005 | 10 | 0.0 | 0.0 | 0.00 | 0.00 | 0.00 | 54 | 1008.6 | |
| 20260507214504 | 10 | 0.0 | 0.0 | 0.00 | 0.00 | 0.00 | 52 | 1008.7 | |
| 20260507213007 | 10 | 0.0 | 0.0 | 0.00 | 0.00 | 0.00 | 50 | 1008.8 | |
| 20260507211503 | 10 | 0.0 | 0.0 | 0.00 | 0.00 | 0.00 | 55 | 1008.7 | |
| 20260507210003 | 10 | 0.0 | 0.0 | 0.00 | 0.00 | 0.00 | 52 | 1008.8 | |
| 20260507204501 | 10 | 0.0 | 0.0 | 0.00 | 0.03 | 0.00 | 53 | 1008.7 | |
| 20260507203002 | 11 | 0.0 | 0.0 | 0.00 | 0.03 | 0.00 | 48 | 1008.8 | |
| 20260507201601 | 11 | 0.0 | 0.0 | 0.00 | 0.03 | 0.00 | 49 | 1008.7 | |
| 20260507200106 | 11 | 0.0 | 0.0 | 0.00 | 0.03 | 0.00 | 47 | 1008.8 | |
| 20260507194601 | 11 | 0.0 | 0.0 | 0.00 | 0.03 | 0.00 | 49 | 1008.9 | |
| 20260507193057 | 11 | 0.0 | 0.0 | 0.00 | 0.03 | 0.00 | 49 | 1009.1 | |
| 20260507191556 | 11 | 0.0 | 0.0 | 0.00 | 0.03 | 0.00 | 48 | 1009.1 | |
| 20260507190106 | 11 | 0.0 | 0.0 | 0.00 | 0.03 | 0.00 | 50 | 1009.4 | |
| 20260507184552 | 11 | 0.0 | 0.0 | 0.00 | 0.03 | 0.00 | 50 | 1009.2 | |
| 20260507183111 | 10 | 0.0 | 0.0 | 0.00 | 0.03 | 0.00 | 50 | 1009.5 | |
| 20260507181556 | 10 | 0.0 | 0.0 | 0.00 | 0.03 | 0.00 | 53 | 1009.7 | |
| 20260507180052 | 10 | 0.0 | 0.0 | 0.00 | 0.03 | 0.00 | 56 | 1009.9 | |
| 20260507174559 | 10 | 0.0 | 0.0 | 0.00 | 0.05 | 0.00 | 53 | 1010.0 | |
| 20260507173050 | 10 | 0.0 | 0.0 | 0.00 | 0.05 | 0.00 | 56 | 1010.0 | |
| 20260507171547 | 10 | 0.0 | 0.0 | 0.00 | 0.05 | 0.00 | 52 | 1010.3 | |
| 20260507170047 | 11 | 0.0 | 0.0 | 0.00 | 0.05 | 0.00 | 51 | 1010.1 | |
| 20260507164600 | 10 | 0.0 | 0.0 | 0.00 | 0.10 | 0.00 | 56 | 1010.3 | |
| 20260507163039 | 10 | 0.0 | 0.0 | 0.00 | 0.10 | 0.00 | 53 | 1010.6 | |
| 20260507161550 | 10 | 0.0 | 0.0 | 0.00 | 0.10 | 0.00 | 53 | 1010.8 | |
| 20260507160141 | 10 | 0.0 | 0.0 | 0.00 | 0.10 | 0.00 | 55 | 1010.8 | |
| 20260507154533 | 9 | 0.0 | 0.0 | 0.00 | 0.25 | 0.00 | 61 | 1011.0 | |
| 20260507153035 | 8 | 0.0 | 0.0 | 0.00 | 0.25 | 0.00 | 60 | 1011.1 | |
| 20260507151531 | 8 | 0.0 | 0.0 | 0.00 | 0.25 | 0.00 | 57 | 1011.2 | |
| 20260507150032 | 7 | 0.0 | 0.0 | 0.00 | 0.25 | 0.00 | 62 | 1011.5 | |
| 20260507144532 | 7 | 0.0 | 0.0 | 0.00 | 0.25 | 0.00 | 64 | 1011.6 | |
| 20260507143022 | 7 | 0.0 | 0.0 | 0.00 | 0.25 | 0.00 | 65 | 1011.6 | |
| 20260507141518 | 6 | 0.0 | 0.0 | 0.00 | 0.25 | 0.00 | 66 | 1011.7 | |
| 20260507140018 | 6 | 0.0 | 0.0 | 0.00 | 0.25 | 0.00 | 68 | 1011.8 | |
| 20260507134508 | 6 | 0.0 | 0.0 | 0.00 | 0.25 | 0.00 | 73 | 1011.7 | |
| 20260507133008 | 5 | 0.0 | 0.0 | 0.00 | 0.25 | 0.00 | 76 | 1011.8 | |
| 20260507131607 | 5 | 0.0 | 0.0 | 0.00 | 0.25 | 0.00 | 79 | 1011.8 | |
| 20260507130006 | 5 | 0.0 | 0.0 | 0.00 | 0.25 | 0.00 | 77 | 1011.7 | |
| 20260507124509 | 4 | 0.0 | 0.0 | 0.00 | 0.25 | 0.00 | 78 | 1011.8 | |
| 20260507123003 | 3 | 0.0 | 0.0 | 0.00 | 0.25 | 0.00 | 81 | 1011.8 | |
| 20260507121505 | 3 | 0.0 | 0.0 | 0.00 | 0.25 | 0.00 | 79 | 1011.7 | |
| 20260507120100 | 3 | 0.0 | 0.0 | 0.00 | 0.25 | 0.00 | 82 | 1011.7 | |
| 20260507114609 | 3 | 0.0 | 0.0 | 0.00 | 0.25 | 0.00 | 83 | 1011.6 | |
| 20260507113126 | 2 | 0.0 | 0.0 | 0.00 | 0.25 | 0.00 | 85 | 1011.3 |